owner,sensor,date,latitude,longitude,air_pressure(mBar),qcFlag 
DISL,ioos:station:DISL:DISL:1,2019-08-01T00:41:00Z,30.2513,-88.0778,1016.594278,11111222 
DISL,ioos:station:DISL:DISL:1,2019-08-01T01:41:00Z,30.2513,-88.0778,1016.932917,11111222 
DISL,ioos:station:DISL:DISL:1,2019-08-01T02:41:00Z,30.2513,-88.0778,1017.271556,11111222 
DISL,ioos:station:DISL:DISL:1,2019-08-01T03:41:00Z,30.2513,-88.0778,1016.932917,11111222 
DISL,ioos:station:DISL:DISL:1,2019-08-01T04:41:00Z,30.2513,-88.0778,1016.594278,11111222 
DISL,ioos:station:DISL:DISL:1,2019-08-01T05:41:00Z,30.2513,-88.0778,1016.594278,11111222 
DISL,ioos:station:DISL:DISL:1,2019-08-01T06:41:00Z,30.2513,-88.0778,1016.594278,11111222 
DISL,ioos:station:DISL:DISL:1,2019-08-01T07:41:00Z,30.2513,-88.0778,1016.594278,11111222 
DISL,ioos:station:DISL:DISL:1,2019-08-01T08:41:00Z,30.2513,-88.0778,1016.594278,11111222 
DISL,ioos:station:DISL:DISL:1,2019-08-01T09:41:00Z,30.2513,-88.0778,1016.594278,11111222 
DISL,ioos:station:DISL:DISL:1,2019-08-01T10:41:00Z,30.2513,-88.0778,1016.594278,11111222 
DISL,ioos:station:DISL:DISL:1,2019-08-01T11:41:00Z,30.2513,-88.0778,1016.932917,11111222 
DISL,ioos:station:DISL:DISL:1,2019-08-01T12:41:00Z,30.2513,-88.0778,1017.948834,11111222 
DISL,ioos:station:DISL:DISL:1,2019-08-01T13:41:00Z,30.2513,-88.0778,1018.287473,11111222 
DISL,ioos:station:DISL:DISL:1,2019-08-01T14:41:00Z,30.2513,-88.0778,1018.964751,11111222 
DISL,ioos:station:DISL:DISL:1,2019-08-01T15:41:00Z,30.2513,-88.0778,1018.964751,11111222 
DISL,ioos:station:DISL:DISL:1,2019-08-01T16:41:00Z,30.2513,-88.0778,1018.964751,11111222 
DISL,ioos:station:DISL:DISL:1,2019-08-01T17:41:00Z,30.2513,-88.0778,1018.287473,11111222 
DISL,ioos:station:DISL:DISL:1,2019-08-01T18:41:00Z,30.2513,-88.0778,1017.610195,11111222 
DISL,ioos:station:DISL:DISL:1,2019-08-01T19:41:00Z,30.2513,-88.0778,1016.932917,11111222 
DISL,ioos:station:DISL:DISL:1,2019-08-01T20:41:00Z,30.2513,-88.0778,1016.255639,11111222 
DISL,ioos:station:DISL:DISL:1,2019-08-01T21:41:00Z,30.2513,-88.0778,1015.578361,11111222 
DISL,ioos:station:DISL:DISL:1,2019-08-01T22:41:00Z,30.2513,-88.0778,1014.562444,11111222 
DISL,ioos:station:DISL:DISL:1,2019-08-01T23:41:00Z,30.2513,-88.0778,1015.239722,11111222 
DISL,ioos:station:DISL:DISL:1,2019-08-02T00:41:00Z,30.2513,-88.0778,1015.239722,11111222 
DISL,ioos:station:DISL:DISL:1,2019-08-02T01:41:00Z,30.2513,-88.0778,1016.255639,11111222 
DISL,ioos:station:DISL:DISL:1,2019-08-02T02:41:00Z,30.2513,-88.0778,1015.917,11111222 
DISL,ioos:station:DISL:DISL:1,2019-08-02T03:41:00Z,30.2513,-88.0778,1015.917,11111222 
DISL,ioos:station:DISL:DISL:1,2019-08-02T04:41:00Z,30.2513,-88.0778,1015.917,11111222 
DISL,ioos:station:DISL:DISL:1,2019-08-02T05:41:00Z,30.2513,-88.0778,1015.917,11111222 
DISL,ioos:station:DISL:DISL:1,2019-08-02T06:41:00Z,30.2513,-88.0778,1015.578361,11111222 
DISL,ioos:station:DISL:DISL:1,2019-08-02T07:41:00Z,30.2513,-88.0778,1014.901083,11111222 
DISL,ioos:station:DISL:DISL:1,2019-08-02T08:41:00Z,30.2513,-88.0778,1014.901083,11111222 
DISL,ioos:station:DISL:DISL:1,2019-08-02T09:41:00Z,30.2513,-88.0778,1014.223805,11111222 
DISL,ioos:station:DISL:DISL:1,2019-08-02T10:41:00Z,30.2513,-88.0778,1014.562444,11111222 
DISL,ioos:station:DISL:DISL:1,2019-08-02T11:41:00Z,30.2513,-88.0778,1014.901083,11111222 
DISL,ioos:station:DISL:DISL:1,2019-08-02T12:41:00Z,30.2513,-88.0778,1015.917,11111222 
DISL,ioos:station:DISL:DISL:1,2019-08-02T13:41:00Z,30.2513,-88.0778,1015.917,11111222 
DISL,ioos:station:DISL:DISL:1,2019-08-02T14:41:00Z,30.2513,-88.0778,1015.578361,11111222 
DISL,ioos:station:DISL:DISL:1,2019-08-02T15:41:00Z,30.2513,-88.0778,1015.578361,11111222 
DISL,ioos:station:DISL:DISL:1,2019-08-02T16:41:00Z,30.2513,-88.0778,1015.578361,11111222 
DISL,ioos:station:DISL:DISL:1,2019-08-02T17:41:00Z,30.2513,-88.0778,1015.239722,11111222 
DISL,ioos:station:DISL:DISL:1,2019-08-02T18:41:00Z,30.2513,-88.0778,1014.901083,11111222 
DISL,ioos:station:DISL:DISL:1,2019-08-02T20:11:00Z,30.2513,-88.0778,1014.223805,11111222 
DISL,ioos:station:DISL:DISL:1,2019-08-02T20:41:00Z,30.2513,-88.0778,1013.546527,11111222 
DISL,ioos:station:DISL:DISL:1,2019-08-02T21:41:00Z,30.2513,-88.0778,1013.885166,11111222 
DISL,ioos:station:DISL:DISL:1,2019-08-02T22:41:00Z,30.2513,-88.0778,1013.885166,11111222 
DISL,ioos:station:DISL:DISL:1,2019-08-02T23:41:00Z,30.2513,-88.0778,1013.546527,11111222 
DISL,ioos:station:DISL:DISL:1,2019-08-03T00:41:00Z,30.2513,-88.0778,1013.546527,11111222 
DISL,ioos:station:DISL:DISL:1,2019-08-03T01:41:00Z,30.2513,-88.0778,1014.223805,11111222 
DISL,ioos:station:DISL:DISL:1,2019-08-03T02:41:00Z,30.2513,-88.0778,1014.901083,11111222 
DISL,ioos:station:DISL:DISL:1,2019-08-03T03:41:00Z,30.2513,-88.0778,1014.562444,11111222 
DISL,ioos:station:DISL:DISL:1,2019-08-03T04:41:00Z,30.2513,-88.0778,1015.239722,11111222 
DISL,ioos:station:DISL:DISL:1,2019-08-03T05:41:00Z,30.2513,-88.0778,1014.901083,11111222 
DISL,ioos:station:DISL:DISL:1,2019-08-03T06:41:00Z,30.2513,-88.0778,1014.223805,11111222 
DISL,ioos:station:DISL:DISL:1,2019-08-03T07:41:00Z,30.2513,-88.0778,1014.223805,11111222 
DISL,ioos:station:DISL:DISL:1,2019-08-03T08:41:00Z,30.2513,-88.0778,1013.546527,11111222 
DISL,ioos:station:DISL:DISL:1,2019-08-03T09:41:00Z,30.2513,-88.0778,1014.223805,11111222 
DISL,ioos:station:DISL:DISL:1,2019-08-03T10:41:00Z,30.2513,-88.0778,1013.546527,11111222 
DISL,ioos:station:DISL:DISL:1,2019-08-03T11:41:00Z,30.2513,-88.0778,1014.562444,11111222 
DISL,ioos:station:DISL:DISL:1,2019-08-03T12:41:00Z,30.2513,-88.0778,1014.901083,11111222 
DISL,ioos:station:DISL:DISL:1,2019-08-03T13:41:00Z,30.2513,-88.0778,1015.578361,11111222 
DISL,ioos:station:DISL:DISL:1,2019-08-03T14:41:00Z,30.2513,-88.0778,1015.578361,11111222 
DISL,ioos:station:DISL:DISL:1,2019-08-03T15:41:00Z,30.2513,-88.0778,1016.255639,11111222 
DISL,ioos:station:DISL:DISL:1,2019-08-03T16:41:00Z,30.2513,-88.0778,1015.578361,11111222 
DISL,ioos:station:DISL:DISL:1,2019-08-03T18:41:00Z,30.2513,-88.0778,1015.239722,11111222 
DISL,ioos:station:DISL:DISL:1,2019-08-03T19:41:00Z,30.2513,-88.0778,1013.885166,11111222 
DISL,ioos:station:DISL:DISL:1,2019-08-03T20:41:00Z,30.2513,-88.0778,1013.885166,11111222 
DISL,ioos:station:DISL:DISL:1,2019-08-03T21:41:00Z,30.2513,-88.0778,1013.546527,11111222 
DISL,ioos:station:DISL:DISL:1,2019-08-03T23:11:00Z,30.2513,-88.0778,1014.223805,11111222 
DISL,ioos:station:DISL:DISL:1,2019-08-03T23:41:00Z,30.2513,-88.0778,1013.546527,11111222 
DISL,ioos:station:DISL:DISL:1,2019-08-04T00:41:00Z,30.2513,-88.0778,1013.546527,11111222 
DISL,ioos:station:DISL:DISL:1,2019-08-04T01:41:00Z,30.2513,-88.0778,1013.546527,11111222 
DISL,ioos:station:DISL:DISL:1,2019-08-04T02:41:00Z,30.2513,-88.0778,1014.223805,11111222 
DISL,ioos:station:DISL:DISL:1,2019-08-04T03:41:00Z,30.2513,-88.0778,1014.223805,11111222 
DISL,ioos:station:DISL:DISL:1,2019-08-04T04:41:00Z,30.2513,-88.0778,1014.562444,11111222 
DISL,ioos:station:DISL:DISL:1,2019-08-04T05:41:00Z,30.2513,-88.0778,1014.223805,11111222 
DISL,ioos:station:DISL:DISL:1,2019-08-04T06:41:00Z,30.2513,-88.0778,1014.223805,11111222 
DISL,ioos:station:DISL:DISL:1,2019-08-04T07:41:00Z,30.2513,-88.0778,1014.223805,11111222 
DISL,ioos:station:DISL:DISL:1,2019-08-04T08:41:00Z,30.2513,-88.0778,1014.223805,11111222 
DISL,ioos:station:DISL:DISL:1,2019-08-04T09:41:00Z,30.2513,-88.0778,1014.223805,11111222 
DISL,ioos:station:DISL:DISL:1,2019-08-04T11:11:00Z,30.2513,-88.0778,1014.901083,11111222 
DISL,ioos:station:DISL:DISL:1,2019-08-04T12:11:00Z,30.2513,-88.0778,1015.239722,11111222 
DISL,ioos:station:DISL:DISL:1,2019-08-04T13:11:00Z,30.2513,-88.0778,1015.578361,11111222 
DISL,ioos:station:DISL:DISL:1,2019-08-04T14:11:00Z,30.2513,-88.0778,1015.917,11111222 
DISL,ioos:station:DISL:DISL:1,2019-08-04T15:11:00Z,30.2513,-88.0778,1016.932917,11111222 
DISL,ioos:station:DISL:DISL:1,2019-08-04T16:11:00Z,30.2513,-88.0778,1016.594278,11111222 
DISL,ioos:station:DISL:DISL:1,2019-08-04T17:11:00Z,30.2513,-88.0778,1016.594278,11111222 
DISL,ioos:station:DISL:DISL:1,2019-08-04T18:11:00Z,30.2513,-88.0778,1015.917,11111222 
DISL,ioos:station:DISL:DISL:1,2019-08-04T19:11:00Z,30.2513,-88.0778,1015.578361,11111222 
DISL,ioos:station:DISL:DISL:1,2019-08-04T20:11:00Z,30.2513,-88.0778,1014.901083,11111222 
DISL,ioos:station:DISL:DISL:1,2019-08-04T21:11:00Z,30.2513,-88.0778,1013.885166,11111222 
DISL,ioos:station:DISL:DISL:1,2019-08-04T22:10:00Z,30.2513,-88.0778,1013.546527,11111222 
DISL,ioos:station:DISL:DISL:1,2019-08-04T23:10:00Z,30.2513,-88.0778,1013.885166,11111222 
DISL,ioos:station:DISL:DISL:1,2019-08-05T00:10:00Z,30.2513,-88.0778,1014.223805,11111222 
DISL,ioos:station:DISL:DISL:1,2019-08-05T01:10:00Z,30.2513,-88.0778,1014.562444,11111222 
DISL,ioos:station:DISL:DISL:1,2019-08-05T02:10:00Z,30.2513,-88.0778,1015.239722,11111222 
DISL,ioos:station:DISL:DISL:1,2019-08-05T03:10:00Z,30.2513,-88.0778,1015.239722,11111222 
DISL,ioos:station:DISL:DISL:1,2019-08-05T04:10:00Z,30.2513,-88.0778,1015.578361,11111222 
DISL,ioos:station:DISL:DISL:1,2019-08-05T05:10:00Z,30.2513,-88.0778,1015.239722,11111222 
DISL,ioos:station:DISL:DISL:1,2019-08-05T06:10:00Z,30.2513,-88.0778,1014.223805,11111222 
DISL,ioos:station:DISL:DISL:1,2019-08-05T07:10:00Z,30.2513,-88.0778,1014.223805,11111222 
DISL,ioos:station:DISL:DISL:1,2019-08-05T08:10:00Z,30.2513,-88.0778,1014.223805,11111222 
DISL,ioos:station:DISL:DISL:1,2019-08-05T09:10:00Z,30.2513,-88.0778,1013.885166,11111222 
DISL,ioos:station:DISL:DISL:1,2019-08-05T10:10:00Z,30.2513,-88.0778,1013.885166,11111222 
DISL,ioos:station:DISL:DISL:1,2019-08-05T11:10:00Z,30.2513,-88.0778,1015.239722,11111222 
DISL,ioos:station:DISL:DISL:1,2019-08-05T12:10:00Z,30.2513,-88.0778,1015.917,11111222 
DISL,ioos:station:DISL:DISL:1,2019-08-05T13:10:00Z,30.2513,-88.0778,1015.917,11111222 
DISL,ioos:station:DISL:DISL:1,2019-08-05T14:10:00Z,30.2513,-88.0778,1016.255639,11111222 
DISL,ioos:station:DISL:DISL:1,2019-08-05T15:10:00Z,30.2513,-88.0778,1015.917,11111222 
DISL,ioos:station:DISL:DISL:1,2019-08-05T16:10:00Z,30.2513,-88.0778,1016.594278,11111222 
DISL,ioos:station:DISL:DISL:1,2019-08-05T17:10:00Z,30.2513,-88.0778,1016.594278,11111222 
DISL,ioos:station:DISL:DISL:1,2019-08-05T18:10:00Z,30.2513,-88.0778,1015.917,11111222 
DISL,ioos:station:DISL:DISL:1,2019-08-05T19:10:00Z,30.2513,-88.0778,1015.578361,11111222 
DISL,ioos:station:DISL:DISL:1,2019-08-05T20:10:00Z,30.2513,-88.0778,1015.239722,11111222 
DISL,ioos:station:DISL:DISL:1,2019-08-05T21:10:00Z,30.2513,-88.0778,1013.885166,11111222 
DISL,ioos:station:DISL:DISL:1,2019-08-05T22:10:00Z,30.2513,-88.0778,1014.562444,11111222 
DISL,ioos:station:DISL:DISL:1,2019-08-05T23:10:00Z,30.2513,-88.0778,1013.885166,11111222 
DISL,ioos:station:DISL:DISL:1,2019-08-06T00:10:00Z,30.2513,-88.0778,1013.885166,11111222 
DISL,ioos:station:DISL:DISL:1,2019-08-06T01:10:00Z,30.2513,-88.0778,1014.562444,11111222 
DISL,ioos:station:DISL:DISL:1,2019-08-06T02:10:00Z,30.2513,-88.0778,1014.562444,11111222 
DISL,ioos:station:DISL:DISL:1,2019-08-06T03:10:00Z,30.2513,-88.0778,1015.239722,11111222 
DISL,ioos:station:DISL:DISL:1,2019-08-06T04:10:00Z,30.2513,-88.0778,1014.901083,11111222 
DISL,ioos:station:DISL:DISL:1,2019-08-06T05:10:00Z,30.2513,-88.0778,1014.562444,11111222 
DISL,ioos:station:DISL:DISL:1,2019-08-06T06:10:00Z,30.2513,-88.0778,1013.885166,11111222 
DISL,ioos:station:DISL:DISL:1,2019-08-06T07:10:00Z,30.2513,-88.0778,1014.223805,11111222 
DISL,ioos:station:DISL:DISL:1,2019-08-06T08:10:00Z,30.2513,-88.0778,1014.223805,11111222 
DISL,ioos:station:DISL:DISL:1,2019-08-06T09:10:00Z,30.2513,-88.0778,1013.546527,11111222 
DISL,ioos:station:DISL:DISL:1,2019-08-06T10:10:00Z,30.2513,-88.0778,1014.223805,11111222 
DISL,ioos:station:DISL:DISL:1,2019-08-06T11:10:00Z,30.2513,-88.0778,1014.562444,11111222 
DISL,ioos:station:DISL:DISL:1,2019-08-06T12:10:00Z,30.2513,-88.0778,1015.578361,11111222 
DISL,ioos:station:DISL:DISL:1,2019-08-06T13:10:00Z,30.2513,-88.0778,1016.255639,11111222 
DISL,ioos:station:DISL:DISL:1,2019-08-06T14:10:00Z,30.2513,-88.0778,1016.255639,11111222 
DISL,ioos:station:DISL:DISL:1,2019-08-06T15:10:00Z,30.2513,-88.0778,1016.255639,11111222 
DISL,ioos:station:DISL:DISL:1,2019-08-06T16:10:00Z,30.2513,-88.0778,1015.578361,11111222 
DISL,ioos:station:DISL:DISL:1,2019-08-06T17:10:00Z,30.2513,-88.0778,1014.901083,11111222 
DISL,ioos:station:DISL:DISL:1,2019-08-06T18:10:00Z,30.2513,-88.0778,1014.901083,11111222 
DISL,ioos:station:DISL:DISL:1,2019-08-06T19:10:00Z,30.2513,-88.0778,1014.562444,11111222 
DISL,ioos:station:DISL:DISL:1,2019-08-06T20:10:00Z,30.2513,-88.0778,1013.885166,11111222 
DISL,ioos:station:DISL:DISL:1,2019-08-06T21:10:00Z,30.2513,-88.0778,1013.207888,11111222 
DISL,ioos:station:DISL:DISL:1,2019-08-06T22:10:00Z,30.2513,-88.0778,1013.207888,11111222 
DISL,ioos:station:DISL:DISL:1,2019-08-06T23:10:00Z,30.2513,-88.0778,1013.207888,11111222 
DISL,ioos:station:DISL:DISL:1,2019-08-07T00:10:00Z,30.2513,-88.0778,1013.546527,11111222 
DISL,ioos:station:DISL:DISL:1,2019-08-07T01:10:00Z,30.2513,-88.0778,1012.869249,11111222 
DISL,ioos:station:DISL:DISL:1,2019-08-07T02:10:00Z,30.2513,-88.0778,1013.885166,11111222 
DISL,ioos:station:DISL:DISL:1,2019-08-07T03:10:00Z,30.2513,-88.0778,1014.223805,11111222 
DISL,ioos:station:DISL:DISL:1,2019-08-07T04:10:00Z,30.2513,-88.0778,1013.885166,11111222 
DISL,ioos:station:DISL:DISL:1,2019-08-07T05:10:00Z,30.2513,-88.0778,1014.223805,11111222 
DISL,ioos:station:DISL:DISL:1,2019-08-07T06:10:00Z,30.2513,-88.0778,1013.546527,11111222 
DISL,ioos:station:DISL:DISL:1,2019-08-07T07:10:00Z,30.2513,-88.0778,1013.885166,11111222 
DISL,ioos:station:DISL:DISL:1,2019-08-07T08:10:00Z,30.2513,-88.0778,1013.546527,11111222 
DISL,ioos:station:DISL:DISL:1,2019-08-07T09:10:00Z,30.2513,-88.0778,1013.885166,11111222 
DISL,ioos:station:DISL:DISL:1,2019-08-07T10:10:00Z,30.2513,-88.0778,1014.223805,11111222 
DISL,ioos:station:DISL:DISL:1,2019-08-07T11:10:00Z,30.2513,-88.0778,1014.562444,11111222 
DISL,ioos:station:DISL:DISL:1,2019-08-07T12:10:00Z,30.2513,-88.0778,1014.562444,11111222 
DISL,ioos:station:DISL:DISL:1,2019-08-07T13:10:00Z,30.2513,-88.0778,1015.578361,11111222 
DISL,ioos:station:DISL:DISL:1,2019-08-07T14:10:00Z,30.2513,-88.0778,1015.578361,11111222 
DISL,ioos:station:DISL:DISL:1,2019-08-07T15:10:00Z,30.2513,-88.0778,1015.917,11111222 
DISL,ioos:station:DISL:DISL:1,2019-08-07T16:10:00Z,30.2513,-88.0778,1015.578361,11111222 
DISL,ioos:station:DISL:DISL:1,2019-08-07T17:10:00Z,30.2513,-88.0778,1015.917,11111222 
DISL,ioos:station:DISL:DISL:1,2019-08-07T18:10:00Z,30.2513,-88.0778,1015.239722,11111222 
DISL,ioos:station:DISL:DISL:1,2019-08-07T19:10:00Z,30.2513,-88.0778,1014.901083,11111222 
DISL,ioos:station:DISL:DISL:1,2019-08-07T20:10:00Z,30.2513,-88.0778,1014.901083,11111222 
DISL,ioos:station:DISL:DISL:1,2019-08-07T21:10:00Z,30.2513,-88.0778,1014.223805,11111222 
DISL,ioos:station:DISL:DISL:1,2019-08-07T22:10:00Z,30.2513,-88.0778,1013.546527,11111222 
DISL,ioos:station:DISL:DISL:1,2019-08-07T23:10:00Z,30.2513,-88.0778,1012.869249,11111222 
DISL,ioos:station:DISL:DISL:1,2019-08-08T00:10:00Z,30.2513,-88.0778,1013.207888,11111222 
DISL,ioos:station:DISL:DISL:1,2019-08-08T01:10:00Z,30.2513,-88.0778,1013.207888,11111222 
DISL,ioos:station:DISL:DISL:1,2019-08-08T02:10:00Z,30.2513,-88.0778,1013.885166,11111222 
DISL,ioos:station:DISL:DISL:1,2019-08-08T03:10:00Z,30.2513,-88.0778,1014.901083,11111222 
DISL,ioos:station:DISL:DISL:1,2019-08-08T04:10:00Z,30.2513,-88.0778,1014.223805,11111222 
DISL,ioos:station:DISL:DISL:1,2019-08-08T05:10:00Z,30.2513,-88.0778,1013.885166,11111222 
DISL,ioos:station:DISL:DISL:1,2019-08-08T06:10:00Z,30.2513,-88.0778,1013.885166,11111222 
DISL,ioos:station:DISL:DISL:1,2019-08-08T07:10:00Z,30.2513,-88.0778,1013.546527,11111222 
DISL,ioos:station:DISL:DISL:1,2019-08-08T08:10:00Z,30.2513,-88.0778,1013.546527,11111222 
DISL,ioos:station:DISL:DISL:1,2019-08-08T09:10:00Z,30.2513,-88.0778,1013.546527,11111222 
DISL,ioos:station:DISL:DISL:1,2019-08-08T10:10:00Z,30.2513,-88.0778,1013.207888,11111222 
DISL,ioos:station:DISL:DISL:1,2019-08-08T11:10:00Z,30.2513,-88.0778,1014.562444,11111222 
DISL,ioos:station:DISL:DISL:1,2019-08-08T12:10:00Z,30.2513,-88.0778,1014.901083,11111222 
DISL,ioos:station:DISL:DISL:1,2019-08-08T13:10:00Z,30.2513,-88.0778,1015.578361,11111222 
DISL,ioos:station:DISL:DISL:1,2019-08-08T14:10:00Z,30.2513,-88.0778,1015.917,11111222 
DISL,ioos:station:DISL:DISL:1,2019-08-08T15:10:00Z,30.2513,-88.0778,1015.917,11111222 
DISL,ioos:station:DISL:DISL:1,2019-08-08T16:10:00Z,30.2513,-88.0778,1016.594278,11111222 
DISL,ioos:station:DISL:DISL:1,2019-08-08T17:10:00Z,30.2513,-88.0778,1016.255639,11111222 
DISL,ioos:station:DISL:DISL:1,2019-08-08T18:10:00Z,30.2513,-88.0778,1015.917,11111222 
DISL,ioos:station:DISL:DISL:1,2019-08-08T19:10:00Z,30.2513,-88.0778,1015.578361,11111222 
DISL,ioos:station:DISL:DISL:1,2019-08-08T20:10:00Z,30.2513,-88.0778,1014.562444,11111222 
DISL,ioos:station:DISL:DISL:1,2019-08-08T21:10:00Z,30.2513,-88.0778,1014.223805,11111222 
DISL,ioos:station:DISL:DISL:1,2019-08-08T22:10:00Z,30.2513,-88.0778,1014.223805,11111222 
DISL,ioos:station:DISL:DISL:1,2019-08-08T23:10:00Z,30.2513,-88.0778,1013.885166,11111222 
DISL,ioos:station:DISL:DISL:1,2019-08-09T00:10:00Z,30.2513,-88.0778,1014.562444,11111222 
DISL,ioos:station:DISL:DISL:1,2019-08-09T01:10:00Z,30.2513,-88.0778,1014.562444,11111222 
DISL,ioos:station:DISL:DISL:1,2019-08-09T02:10:00Z,30.2513,-88.0778,1013.885166,11111222 
DISL,ioos:station:DISL:DISL:1,2019-08-09T03:10:00Z,30.2513,-88.0778,1014.901083,11111222 
DISL,ioos:station:DISL:DISL:1,2019-08-09T04:10:00Z,30.2513,-88.0778,1015.239722,11111222 
DISL,ioos:station:DISL:DISL:1,2019-08-09T05:10:00Z,30.2513,-88.0778,1014.223805,11111222 
DISL,ioos:station:DISL:DISL:1,2019-08-09T06:10:00Z,30.2513,-88.0778,1014.223805,11111222 
DISL,ioos:station:DISL:DISL:1,2019-08-09T07:10:00Z,30.2513,-88.0778,1014.223805,11111222 
DISL,ioos:station:DISL:DISL:1,2019-08-09T08:10:00Z,30.2513,-88.0778,1013.207888,11111222 
DISL,ioos:station:DISL:DISL:1,2019-08-09T09:10:00Z,30.2513,-88.0778,1013.885166,11111222 
DISL,ioos:station:DISL:DISL:1,2019-08-09T10:10:00Z,30.2513,-88.0778,1013.885166,11111222 
DISL,ioos:station:DISL:DISL:1,2019-08-09T11:10:00Z,30.2513,-88.0778,1014.562444,11111222 
DISL,ioos:station:DISL:DISL:1,2019-08-09T12:10:00Z,30.2513,-88.0778,1015.239722,11111222 
DISL,ioos:station:DISL:DISL:1,2019-08-09T13:10:00Z,30.2513,-88.0778,1015.239722,11111222 
DISL,ioos:station:DISL:DISL:1,2019-08-09T14:10:00Z,30.2513,-88.0778,1015.239722,11111222 
DISL,ioos:station:DISL:DISL:1,2019-08-09T15:10:00Z,30.2513,-88.0778,1016.255639,11111222 
DISL,ioos:station:DISL:DISL:1,2019-08-09T16:10:00Z,30.2513,-88.0778,1016.594278,11111222 
DISL,ioos:station:DISL:DISL:1,2019-08-09T17:10:00Z,30.2513,-88.0778,1015.917,11111222 
DISL,ioos:station:DISL:DISL:1,2019-08-09T18:10:00Z,30.2513,-88.0778,1015.578361,11111222 
DISL,ioos:station:DISL:DISL:1,2019-08-09T19:10:00Z,30.2513,-88.0778,1014.223805,11111222 
DISL,ioos:station:DISL:DISL:1,2019-08-09T20:10:00Z,30.2513,-88.0778,1013.546527,11111222 
DISL,ioos:station:DISL:DISL:1,2019-08-09T21:10:00Z,30.2513,-88.0778,1014.223805,11111222 
DISL,ioos:station:DISL:DISL:1,2019-08-09T22:10:00Z,30.2513,-88.0778,1014.901083,11111222 
DISL,ioos:station:DISL:DISL:1,2019-08-09T23:10:00Z,30.2513,-88.0778,1013.885166,11111222 
DISL,ioos:station:DISL:DISL:1,2019-08-09T23:40:00Z,30.2513,-88.0778,1013.885166,11111222 
DISL,ioos:station:DISL:DISL:1,2019-08-10T01:10:00Z,30.2513,-88.0778,1014.562444,11111222 
DISL,ioos:station:DISL:DISL:1,2019-08-10T02:10:00Z,30.2513,-88.0778,1015.239722,11111222 
DISL,ioos:station:DISL:DISL:1,2019-08-10T02:40:00Z,30.2513,-88.0778,1015.239722,11111222 
DISL,ioos:station:DISL:DISL:1,2019-08-10T04:10:00Z,30.2513,-88.0778,1015.239722,11111222 
DISL,ioos:station:DISL:DISL:1,2019-08-10T05:10:00Z,30.2513,-88.0778,1014.223805,11111222 
DISL,ioos:station:DISL:DISL:1,2019-08-10T06:10:00Z,30.2513,-88.0778,1013.546527,11111222 
DISL,ioos:station:DISL:DISL:1,2019-08-10T07:10:00Z,30.2513,-88.0778,1013.546527,11111222 
DISL,ioos:station:DISL:DISL:1,2019-08-10T08:10:00Z,30.2513,-88.0778,1013.885166,11111222 
DISL,ioos:station:DISL:DISL:1,2019-08-10T09:10:00Z,30.2513,-88.0778,1014.223805,11111222 
DISL,ioos:station:DISL:DISL:1,2019-08-10T10:10:00Z,30.2513,-88.0778,1014.223805,11111222 
DISL,ioos:station:DISL:DISL:1,2019-08-10T11:10:00Z,30.2513,-88.0778,1014.901083,11111222 
DISL,ioos:station:DISL:DISL:1,2019-08-10T12:10:00Z,30.2513,-88.0778,1014.562444,11111222 
DISL,ioos:station:DISL:DISL:1,2019-08-10T13:10:00Z,30.2513,-88.0778,1015.239722,11111222 
DISL,ioos:station:DISL:DISL:1,2019-08-10T14:10:00Z,30.2513,-88.0778,1015.917,11111222 
DISL,ioos:station:DISL:DISL:1,2019-08-10T15:10:00Z,30.2513,-88.0778,1015.917,11111222 
DISL,ioos:station:DISL:DISL:1,2019-08-10T16:10:00Z,30.2513,-88.0778,1016.255639,11111222 
DISL,ioos:station:DISL:DISL:1,2019-08-10T17:10:00Z,30.2513,-88.0778,1016.255639,11111222 
DISL,ioos:station:DISL:DISL:1,2019-08-10T18:10:00Z,30.2513,-88.0778,1014.901083,11111222 
DISL,ioos:station:DISL:DISL:1,2019-08-10T19:10:00Z,30.2513,-88.0778,1014.901083,11111222 
DISL,ioos:station:DISL:DISL:1,2019-08-10T20:10:00Z,30.2513,-88.0778,1014.223805,11111222 
DISL,ioos:station:DISL:DISL:1,2019-08-10T21:10:00Z,30.2513,-88.0778,1013.885166,11111222 
DISL,ioos:station:DISL:DISL:1,2019-08-10T22:10:00Z,30.2513,-88.0778,1014.562444,11111222 
DISL,ioos:station:DISL:DISL:1,2019-08-10T23:10:00Z,30.2513,-88.0778,1014.562444,11111222 
DISL,ioos:station:DISL:DISL:1,2019-08-10T23:40:00Z,30.2513,-88.0778,1014.223805,11111222 
DISL,ioos:station:DISL:DISL:1,2019-08-11T00:40:00Z,30.2513,-88.0778,1015.578361,11111222 
DISL,ioos:station:DISL:DISL:1,2019-08-11T01:40:00Z,30.2513,-88.0778,1014.901083,11111222 
DISL,ioos:station:DISL:DISL:1,2019-08-11T02:40:00Z,30.2513,-88.0778,1015.239722,11111222 
DISL,ioos:station:DISL:DISL:1,2019-08-11T03:40:00Z,30.2513,-88.0778,1014.901083,11111222 
DISL,ioos:station:DISL:DISL:1,2019-08-11T04:40:00Z,30.2513,-88.0778,1014.562444,11111222 
DISL,ioos:station:DISL:DISL:1,2019-08-11T05:40:00Z,30.2513,-88.0778,1014.562444,11111222 
DISL,ioos:station:DISL:DISL:1,2019-08-11T07:10:00Z,30.2513,-88.0778,1014.901083,11111222 
DISL,ioos:station:DISL:DISL:1,2019-08-11T08:10:00Z,30.2513,-88.0778,1014.562444,11111222 
DISL,ioos:station:DISL:DISL:1,2019-08-11T09:10:00Z,30.2513,-88.0778,1014.223805,11111222 
DISL,ioos:station:DISL:DISL:1,2019-08-11T10:10:00Z,30.2513,-88.0778,1014.901083,11111222 
DISL,ioos:station:DISL:DISL:1,2019-08-11T11:10:00Z,30.2513,-88.0778,1015.578361,11111222 
DISL,ioos:station:DISL:DISL:1,2019-08-11T12:10:00Z,30.2513,-88.0778,1015.917,11111222 
DISL,ioos:station:DISL:DISL:1,2019-08-11T13:10:00Z,30.2513,-88.0778,1016.255639,11111222 
DISL,ioos:station:DISL:DISL:1,2019-08-11T14:10:00Z,30.2513,-88.0778,1016.594278,11111222 
DISL,ioos:station:DISL:DISL:1,2019-08-11T15:10:00Z,30.2513,-88.0778,1016.932917,11111222 
DISL,ioos:station:DISL:DISL:1,2019-08-11T16:10:00Z,30.2513,-88.0778,1016.932917,11111222 
DISL,ioos:station:DISL:DISL:1,2019-08-11T17:10:00Z,30.2513,-88.0778,1016.594278,11111222 
DISL,ioos:station:DISL:DISL:1,2019-08-11T18:10:00Z,30.2513,-88.0778,1016.255639,11111222 
DISL,ioos:station:DISL:DISL:1,2019-08-11T19:10:00Z,30.2513,-88.0778,1015.917,11111222 
DISL,ioos:station:DISL:DISL:1,2019-08-11T20:11:00Z,30.2513,-88.0778,1015.917,11111222 
DISL,ioos:station:DISL:DISL:1,2019-08-11T21:10:00Z,30.2513,-88.0778,1015.578361,11111222 
DISL,ioos:station:DISL:DISL:1,2019-08-11T22:11:00Z,30.2513,-88.0778,1014.901083,11111222 
DISL,ioos:station:DISL:DISL:1,2019-08-11T23:11:00Z,30.2513,-88.0778,1014.562444,11111222 
DISL,ioos:station:DISL:DISL:1,2019-08-11T23:41:00Z,30.2513,-88.0778,1013.885166,11111222 
DISL,ioos:station:DISL:DISL:1,2019-08-12T00:41:00Z,30.2513,-88.0778,1014.223805,11111222 
DISL,ioos:station:DISL:DISL:1,2019-08-12T01:41:00Z,30.2513,-88.0778,1014.562444,11111222 
DISL,ioos:station:DISL:DISL:1,2019-08-12T02:41:00Z,30.2513,-88.0778,1014.223805,11111222 